Location: Boiro
(42.6475°N, 8.8834°W)
Time: 01:19:33
(UTC+01:00)

Transit 4A - Visible Passes

Search period start: 30 November 2021 00:00
Search period end: 10 December 2021 00:00
Orbit: 866 x 978 km, 66.8° (Epoch: 29 November)

Date Brightness Start Highest point End Pass type
(mag) Time Alt. Az. Time Alt. Az. Time Alt. Az.
30 Nov 9.5 05:25:26 27° NNE 05:26:38 29° NE 05:32:03 10° ESE visible
30 Nov 8.0 07:08:59 20° NW 07:13:25 61° WSW 07:19:41 10° SSE visible
30 Nov 10.0 20:29:48 10° SSE 20:29:50 10° SSE 20:29:50 10° SSE visible
01 Dec 9.0 05:35:11 36° NNE 05:36:11 39° NE 05:42:05 10° ESE visible
01 Dec 8.4 07:18:44 20° NW 07:22:36 42° WSW 07:28:31 10° S visible
01 Dec 9.5 20:38:16 10° S 20:39:57 19° S 20:39:57 19° S visible
02 Dec 8.5 05:45:01 52° NNE 05:45:38 54° NE 05:51:52 10° SE visible
02 Dec 8.9 07:28:35 19° WNW 07:31:42 29° WSW 07:37:01 10° SSW visible
02 Dec 9.0 20:47:05 10° SSW 20:50:02 31° S 20:50:02 31° S visible
03 Dec 10.7 04:11:22 11° ENE 04:11:22 11° ENE 04:11:51 10° E visible
03 Dec 8.0 05:54:57 75° NE 05:55:01 76° ENE 06:01:24 10° SE visible
03 Dec 9.3 07:38:31 16° WNW 07:40:44 19° WSW 07:45:03 10° SSW visible
03 Dec 9.5 19:14:06 10° SE 19:16:31 13° ESE 19:16:31 13° ESE visible
03 Dec 8.5 20:56:11 10° SSW 21:00:05 45° SSW 21:00:05 45° SSW visible
04 Dec 10.5 04:21:22 13° E 04:21:22 13° E 04:22:19 10° E visible
04 Dec 7.9 06:04:57 71° S 06:04:57 71° S 06:10:42 10° SSE visible
04 Dec 9.6 07:48:31 12° W 07:49:42 12° W 07:52:06 10° WSW visible
04 Dec 9.0 19:21:26 10° SSE 19:25:37 21° ESE 19:26:30 20° E visible
04 Dec 8.5 21:05:32 10° SW 21:10:04 51° WSW 21:10:04 51° WSW visible
05 Dec 10.4 04:31:26 15° ESE 04:31:26 15° ESE 04:32:31 10° ESE visible
05 Dec 8.5 06:15:01 44° SSW 06:15:01 44° SSW 06:19:43 10° S visible
05 Dec 8.6 19:29:36 10° S 19:34:39 31° ESE 19:36:24 26° ENE visible
05 Dec 8.8 21:15:09 10° SW 21:19:57 43° WNW 21:19:57 43° WNW visible
06 Dec 10.4 04:41:33 14° ESE 04:41:33 14° ESE 04:42:27 10° ESE visible
06 Dec 9.1 06:25:08 27° SSW 06:25:08 27° SSW 06:28:27 10° S visible
06 Dec 8.1 19:38:12 10° S 19:43:45 46° ESE 19:46:13 30° ENE visible
06 Dec 9.3 21:25:00 10° WSW 21:29:46 32° WNW 21:29:46 32° WNW visible
07 Dec 10.5 04:51:42 12° SE 04:51:42 12° SE 04:52:09 10° SE visible
07 Dec 9.7 06:35:17 16° SSW 06:35:17 16° SSW 06:36:49 10° SSW visible
07 Dec 7.7 19:47:07 10° SSW 19:52:56 69° ESE 19:55:58 30° NE visible
07 Dec 9.7 21:35:05 10° W 21:39:31 24° NW 21:39:31 24° NW visible
08 Dec 7.8 19:56:19 10° SSW 20:02:11 82° WNW 20:05:37 27° NNE visible
08 Dec 10.0 21:45:28 10° W 21:49:10 18° NW 21:49:10 18° NW visible
09 Dec 8.3 20:05:46 10° SW 20:11:32 57° NW 20:15:11 24° NNE visible
09 Dec 10.3 21:56:10 10° WNW 21:58:44 14° NW 21:58:44 14° NW visible
